| time (UTC) | temp F | wind direction | speed MPH | gust MPH | rain 1hr in | rain 24hr in | rain mn in | humidity % | barometer mb |
| 20260506002746 | 56 | 90 | 0.0 | 0.0 | 0.00 | 1.27 | 0.00 | 67 | 1008.6 |
| 20260506002345 | 56 | 270 | 0.0 | 0.0 | 0.00 | 1.27 | 0.00 | 67 | 1008.6 |
| 20260506001943 | 56 | 270 | 0.0 | 0.0 | 0.00 | 1.27 | 0.00 | 66 | 1008.7 |
| 20260506001542 | 56 | 45 | 0.0 | 0.0 | 0.00 | 1.27 | 0.00 | 66 | 1008.8 |
| 20260506000541 | 56 | 225 | 0.0 | 0.0 | 0.00 | 1.27 | 0.00 | 66 | 1009.0 |
| 20260506000139 | 56 | 225 | 0.0 | 0.0 | 0.00 | 1.27 | 0.00 | 66 | 1008.9 |
| 20260505235738 | 56 | 135 | 0.0 | 0.0 | 0.00 | 1.27 | 0.00 | 66 | 1009.0 |
| 20260505235336 | 56 | 135 | 0.0 | 0.0 | 0.00 | 1.27 | 0.00 | 66 | 1009.1 |
| 20260505234334 | 57 | 180 | 0.0 | 0.0 | 0.00 | 1.27 | 0.00 | 66 | 1009.4 |
| 20260505233933 | 57 | 270 | 0.0 | 0.0 | 0.00 | 1.27 | 0.00 | 65 | 1009.5 |
| 20260505233531 | 57 | 45 | 0.0 | 0.0 | 0.00 | 1.27 | 0.00 | 65 | 1009.6 |
| 20260505233130 | 57 | 270 | 0.0 | 0.0 | 0.00 | 1.27 | 0.00 | 65 | 1009.7 |
| 20260505232729 | 57 | 270 | 0.0 | 0.0 | 0.00 | 1.27 | 0.00 | 65 | 1009.8 |
| 20260505232327 | 57 | 0 | 0.0 | 0.0 | 0.00 | 1.27 | 0.00 | 65 | 1009.9 |
| 20260505231926 | 57 | 45 | 0.0 | 0.0 | 0.00 | 1.27 | 0.00 | 65 | 1009.8 |
| 20260505231324 | 57 | 45 | 0.0 | 1.0 | 0.00 | 1.27 | 0.00 | 65 | 1009.8 |
| 20260505230923 | 57 | 0 | 0.0 | 0.0 | 0.00 | 1.27 | 0.00 | 66 | 1010.1 |
| 20260505230522 | 57 | 315 | 0.0 | 0.0 | 0.00 | 1.27 | 0.00 | 66 | 1010.2 |
| 20260505230122 | 57 | 68 | 0.0 | 0.0 | 0.00 | 1.27 | 0.00 | 66 | 1009.9 |
| 20260505225720 | 57 | 90 | 0.0 | 1.0 | 0.00 | 1.27 | 0.00 | 66 | 1010.0 |
| 20260505224316 | 57 | 293 | 0.0 | 1.0 | 0.00 | 1.27 | 0.00 | 67 | 1010.1 |
| 20260505223915 | 57 | 135 | 0.0 | 0.0 | 0.00 | 1.27 | 0.00 | 66 | 1010.1 |
| 20260505223514 | 57 | 135 | 0.0 | 0.0 | 0.00 | 1.27 | 0.00 | 67 | 1010.2 |
| 20260505223113 | 57 | 270 | 0.0 | 0.0 | 0.00 | 1.27 | 0.00 | 67 | 1010.2 |
| 20260505222512 | 57 | 0 | 0.0 | 0.0 | 0.00 | 1.27 | 0.00 | 67 | 1010.2 |
| 20260505222110 | 57 | 225 | 0.0 | 0.0 | 0.00 | 1.27 | 0.00 | 67 | 1010.3 |
| 20260505221709 | 56 | 158 | 0.0 | 1.0 | 0.00 | 1.27 | 0.00 | 67 | 1010.4 |
| 20260505221307 | 56 | 270 | 0.0 | 0.0 | 0.00 | 1.27 | 0.00 | 67 | 1010.2 |
| 20260505220906 | 56 | 315 | 0.0 | 0.0 | 0.00 | 1.27 | 0.00 | 67 | 1010.3 |
| 20260505220505 | 56 | 45 | 0.0 | 0.0 | 0.00 | 0.00 | 0.00 | 67 | 1010.5 |
| 20260505215750 | 56 | 315 | 0.0 | 0.0 | 0.00 | 1.27 | 1.27 | 67 | 1010.6 |
| 20260505215348 | 56 | 90 | 0.0 | 0.0 | 0.00 | 1.27 | 1.27 | 67 | 1010.7 |
| 20260505214947 | 56 | 270 | 0.0 | 0.0 | 0.00 | 1.27 | 1.27 | 67 | 1010.6 |
| 20260505214546 | 57 | 45 | 0.0 | 0.0 | 0.00 | 1.27 | 1.27 | 67 | 1010.5 |
| 20260505214345 | 56 | 270 | 0.0 | 0.0 | 0.00 | 1.27 | 1.27 | 67 | 1010.6 |
| 20260505213944 | 56 | 90 | 0.0 | 0.0 | 0.00 | 1.27 | 1.27 | 68 | 1010.6 |
| 20260505213543 | 56 | 270 | 0.0 | 0.0 | 0.00 | 1.27 | 1.27 | 68 | 1010.7 |
| 20260505213142 | 56 | 180 | 0.0 | 0.0 | 0.00 | 1.27 | 1.27 | 68 | 1010.8 |
| 20260505212740 | 56 | 0 | 0.0 | 0.0 | 0.00 | 1.27 | 1.27 | 68 | 1010.9 |
| 20260505212340 | 56 | 45 | 0.0 | 0.0 | 0.00 | 1.27 | 1.27 | 68 | 1010.8 |
| 20260505211938 | 57 | 45 | 0.0 | 0.0 | 0.00 | 1.27 | 1.27 | 68 | 1010.7 |
| 20260505210936 | 56 | 45 | 0.0 | 1.0 | 0.00 | 1.27 | 1.27 | 67 | 1010.9 |
| 20260505210535 | 56 | 315 | 0.0 | 0.0 | 0.00 | 1.27 | 1.27 | 67 | 1010.8 |
| 20260505210134 | 56 | 270 | 0.0 | 0.0 | 0.00 | 1.27 | 1.27 | 66 | 1010.9 |
| 20260505205732 | 56 | 270 | 0.0 | 0.0 | 0.00 | 1.27 | 1.27 | 66 | 1011.1 |
| 20260505205331 | 56 | 45 | 0.0 | 0.0 | 0.00 | 1.27 | 1.27 | 66 | 1010.9 |
| 20260505204730 | 57 | 270 | 0.0 | 0.0 | 0.00 | 1.27 | 1.27 | 65 | 1011.0 |
| 20260505204327 | 57 | 90 | 0.0 | 1.0 | 0.00 | 1.27 | 1.27 | 65 | 1011.0 |
| 20260505203926 | 57 | 45 | 0.0 | 0.0 | 0.00 | 1.27 | 1.27 | 64 | 1011.1 |
| 20260505203525 | 57 | 0 | 0.0 | 0.0 | 0.00 | 1.27 | 1.27 | 64 | 1011.1 |
| 20260505203124 | 57 | 180 | 0.0 | 0.0 | 0.00 | 1.27 | 1.27 | 63 | 1011.2 |
| 20260505202723 | 57 | 90 | 0.0 | 0.0 | 0.00 | 1.27 | 1.27 | 63 | 1011.2 |
| 20260505202322 | 57 | 45 | 0.0 | 0.0 | 0.00 | 1.27 | 1.27 | 63 | 1011.1 |
| 20260505201921 | 57 | 315 | 0.0 | 0.0 | 0.00 | 1.27 | 1.27 | 63 | 1011.0 |
| 20260505201720 | 57 | 315 | 0.0 | 0.0 | 0.00 | 1.27 | 1.27 | 63 | 1011.0 |
| 20260505201320 | 57 | 135 | 0.0 | 0.0 | 0.00 | 1.27 | 1.27 | 61 | 1011.1 |
| 20260505200918 | 57 | 0 | 0.0 | 0.0 | 0.00 | 1.27 | 1.27 | 61 | 1011.1 |
| 20260505200517 | 57 | 135 | 0.0 | 0.0 | 0.00 | 1.27 | 1.27 | 61 | 1011.1 |
| 20260505200115 | 57 | 90 | 0.0 | 1.0 | 0.00 | 1.27 | 1.27 | 61 | 1011.1 |
| 20260505195714 | 57 | 225 | 0.0 | 0.0 | 0.00 | 1.27 | 1.27 | 61 | 1011.2 |
| 20260505194711 | 57 | 293 | 0.0 | 0.0 | 0.00 | 1.27 | 1.27 | 61 | 1011.1 |
| 20260505194310 | 57 | 45 | 0.0 | 0.0 | 0.00 | 1.27 | 1.27 | 60 | 1011.0 |
| 20260505193909 | 57 | 135 | 0.0 | 0.0 | 0.00 | 1.27 | 1.27 | 59 | 1011.1 |
| 20260505193508 | 57 | 135 | 0.0 | 0.0 | 0.00 | 1.27 | 1.27 | 59 | 1011.0 |
| 20260505193106 | 57 | 315 | 0.0 | 0.0 | 0.00 | 1.27 | 1.27 | 59 | 1010.9 |
| 20260505192705 | 57 | 225 | 0.0 | 0.0 | 0.00 | 1.27 | 1.27 | 58 | 1010.8 |
| 20260505192103 | 57 | 180 | 0.0 | 0.0 | 0.00 | 1.27 | 1.27 | 57 | 1010.9 |
| 20260505191702 | 58 | 45 | 0.0 | 0.0 | 0.00 | 1.27 | 1.27 | 57 | 1010.8 |
| 20260505191300 | 58 | 45 | 0.0 | 0.0 | 0.00 | 1.27 | 1.27 | 57 | 1010.9 |
| 20260505190859 | 58 | 90 | 0.0 | 0.0 | 0.00 | 1.27 | 1.27 | 56 | 1010.8 |
| 20260505190458 | 58 | 135 | 0.0 | 0.0 | 0.00 | 1.27 | 1.27 | 55 | 1010.9 |
| 20260505190257 | 58 | 135 | 0.0 | 0.0 | 0.00 | 1.27 | 1.27 | 55 | 1010.8 |
| 20260505185855 | 58 | 270 | 0.0 | 0.0 | 0.00 | 1.27 | 1.27 | 55 | 1010.6 |
| 20260505185454 | 58 | 135 | 0.0 | 0.0 | 0.00 | 1.27 | 1.27 | 54 | 1010.7 |
| 20260505185053 | 58 | 0 | 0.0 | 0.0 | 0.00 | 1.27 | 1.27 | 54 | 1010.7 |
| 20260505184652 | 58 | 293 | 0.0 | 0.0 | 0.00 | 1.27 | 1.27 | 54 | 1010.7 |
| 20260505184250 | 58 | 270 | 0.0 | 0.0 | 0.00 | 1.27 | 1.27 | 54 | 1010.7 |
| 20260505183248 | 58 | 135 | 0.0 | 0.0 | 0.00 | 1.27 | 1.27 | 53 | 1010.8 |
| 20260505182847 | 58 | 180 | 0.0 | 0.0 | 0.00 | 1.27 | 1.27 | 53 | 1010.8 |
| 20260505182445 | 58 | 180 | 0.0 | 0.0 | 0.00 | 1.27 | 1.27 | 53 | 1010.8 |
| 20260505182044 | 59 | 225 | 0.0 | 0.0 | 0.00 | 1.27 | 1.27 | 52 | 1010.8 |
| 20260505181643 | 59 | 45 | 0.0 | 0.0 | 0.00 | 1.27 | 1.27 | 52 | 1010.8 |
| 20260505181040 | 59 | 225 | 0.0 | 0.0 | 0.00 | 1.27 | 1.27 | 50 | 1010.7 |
| 20260505180639 | 59 | 45 | 0.0 | 0.0 | 0.00 | 1.27 | 1.27 | 50 | 1010.7 |
| 20260505180238 | 60 | 45 | 0.0 | 0.0 | 0.00 | 1.27 | 1.27 | 49 | 1010.7 |
| 20260505175836 | 60 | 45 | 0.0 | 1.0 | 0.00 | 1.27 | 1.27 | 49 | 1010.6 |
| 20260505175436 | 60 | 135 | 0.0 | 0.0 | 0.00 | 1.27 | 1.27 | 48 | 1010.7 |
| 20260505175035 | 60 | 90 | 0.0 | 0.0 | 0.00 | 1.27 | 1.27 | 47 | 1010.6 |
| 20260505174032 | 61 | 180 | 0.0 | 0.0 | 0.00 | 1.27 | 1.27 | 44 | 1010.5 |
| 20260505173631 | 62 | 135 | 0.0 | 1.0 | 0.00 | 1.27 | 1.27 | 42 | 1010.6 |
| 20260505173229 | 62 | 135 | 0.0 | 0.0 | 0.00 | 1.27 | 1.27 | 42 | 1010.5 |
| 20260505172828 | 63 | 180 | 0.0 | 0.0 | 0.00 | 1.27 | 1.27 | 38 | 1010.5 |
| 20260505172426 | 64 | 180 | 0.0 | 0.0 | 0.00 | 1.27 | 1.27 | 36 | 1010.5 |
| 20260505171423 | 68 | 135 | 0.0 | 0.0 | 0.00 | 1.27 | 1.27 | 34 | 1010.5 |
| 20260505171025 | 68 | 135 | 0.0 | 0.0 | 0.00 | 1.27 | 1.27 | 35 | 1010.5 |
| 20260505170623 | 67 | 270 | 0.0 | 0.0 | 0.00 | 1.27 | 1.27 | 36 | 1010.5 |
| 20260505170220 | 66 | 270 | 0.0 | 0.0 | 0.00 | 1.27 | 1.27 | 39 | 1010.4 |
| 20260505165819 | 64 | 270 | 0.0 | 0.0 | 0.00 | 1.27 | 1.27 | 41 | 1010.5 |
| 20260505165419 | 63 | 180 | 0.0 | 0.0 | 0.00 | 1.27 | 1.27 | 42 | 1010.5 |
| 20260505164817 | 63 | 180 | 0.0 | 0.0 | 0.00 | 1.27 | 1.27 | 41 | 1010.6 |
| 20260505164415 | 64 | 180 | 0.0 | 0.0 | 0.00 | 1.27 | 1.27 | 41 | 1010.5 |
| 20260505164015 | 65 | 0 | 0.0 | 0.0 | 0.00 | 1.27 | 1.27 | 39 | 1010.5 |
| 20260505163613 | 66 | 90 | 0.0 | 0.0 | 0.00 | 1.27 | 1.27 | 37 | 1010.5 |
| 20260505163212 | 67 | 225 | 0.0 | 1.0 | 0.00 | 1.27 | 1.27 | 36 | 1010.5 |
| 20260505162810 | 68 | 23 | 0.0 | 0.0 | 0.00 | 1.27 | 1.27 | 37 | 1010.5 |
| 20260505162409 | 67 | 90 | 0.0 | 0.0 | 0.00 | 1.27 | 1.27 | 37 | 1010.5 |
| 20260505162208 | 67 | 135 | 0.0 | 0.0 | 0.00 | 1.27 | 1.27 | 36 | 1010.6 |
| 20260505161806 | 68 | 113 | 0.0 | 0.0 | 0.00 | 1.27 | 1.27 | 37 | 1010.5 |
| 20260505161406 | 68 | 90 | 0.0 | 0.0 | 0.00 | 1.27 | 1.27 | 35 | 1010.5 |
| 20260505161005 | 68 | 90 | 0.0 | 0.0 | 0.00 | 1.27 | 1.27 | 36 | 1010.5 |
| 20260505160603 | 67 | 270 | 0.0 | 0.0 | 0.00 | 1.27 | 1.27 | 37 | 1010.6 |
| 20260505160202 | 67 | 315 | 0.0 | 0.0 | 0.00 | 1.27 | 1.27 | 36 | 1010.5 |
| 20260505152952 | 64 | 135 | 0.0 | 0.0 | 0.00 | 1.27 | 1.27 | 42 | 1010.8 |
| 20260505152551 | 64 | 90 | 0.0 | 0.0 | 0.00 | 1.27 | 1.27 | 42 | 1010.9 |
| 20260505152150 | 65 | 180 | 0.0 | 0.0 | 0.00 | 1.27 | 1.27 | 42 | 1010.9 |
| 20260505151748 | 65 | 180 | 0.0 | 0.0 | 0.00 | 1.27 | 1.27 | 41 | 1010.9 |
| 20260505151347 | 65 | 315 | 0.0 | 0.0 | 0.00 | 1.27 | 1.27 | 42 | 1010.8 |
| 20260505150945 | 65 | 180 | 0.0 | 0.0 | 0.00 | 1.27 | 1.27 | 40 | 1010.8 |
| 20260505140325 | 71 | 225 | 0.0 | 1.0 | 0.00 | 1.27 | 1.27 | 33 | 1010.6 |
| 20260505130308 | 67 | 135 | 0.0 | 0.0 | 0.00 | 1.27 | 1.27 | 43 | 1010.9 |
| 20260505124502 | 67 | 180 | 0.0 | 0.0 | 0.00 | 1.27 | 1.27 | 44 | 1010.9 |
| 20260505124101 | 68 | 135 | 0.0 | 0.0 | 0.00 | 1.27 | 1.27 | 44 | 1010.9 |
| 20260505123700 | 68 | 135 | 0.0 | 0.0 | 0.00 | 1.27 | 1.27 | 45 | 1010.9 |
| 20260505123258 | 67 | 225 | 0.0 | 0.0 | 0.00 | 1.27 | 1.27 | 46 | 1010.9 |
| 20260505122857 | 65 | 135 | 0.0 | 0.0 | 0.00 | 1.27 | 1.27 | 47 | 1011.0 |
| 20260505122456 | 64 | 180 | 0.0 | 0.0 | 0.00 | 1.27 | 1.27 | 45 | 1011.0 |
| 20260505122055 | 64 | 180 | 0.0 | 0.0 | 0.00 | 1.27 | 1.27 | 45 | 1011.0 |
| 20260505121453 | 65 | 135 | 0.0 | 0.0 | 0.00 | 1.27 | 1.27 | 46 | 1011.0 |
| 20260505120652 | 67 | 180 | 0.0 | 0.0 | 0.00 | 1.27 | 1.27 | 45 | 1010.9 |
| 20260505120250 | 67 | 180 | 0.0 | 0.0 | 0.00 | 1.27 | 1.27 | 44 | 1010.8 |
| 20260505115849 | 67 | 225 | 0.0 | 0.0 | 0.00 | 1.27 | 1.27 | 44 | 1010.9 |
| 20260505115448 | 67 | 270 | 0.0 | 0.0 | 0.00 | 1.27 | 1.27 | 45 | 1010.9 |
| 20260505114445 | 66 | 158 | 0.0 | 0.0 | 0.00 | 1.27 | 1.27 | 47 | 1011.0 |
| 20260505114044 | 66 | 270 | 0.0 | 0.0 | 0.00 | 1.27 | 1.27 | 47 | 1011.0 |
| 20260505113642 | 64 | 180 | 0.0 | 0.0 | 0.00 | 1.27 | 1.27 | 50 | 1010.9 |
| 20260505113241 | 63 | 90 | 0.0 | 0.0 | 0.00 | 1.27 | 1.27 | 51 | 1011.0 |
| 20260505112840 | 62 | 135 | 0.0 | 0.0 | 0.00 | 1.27 | 1.27 | 53 | 1011.0 |
| 20260505112238 | 62 | 158 | 0.0 | 0.0 | 0.00 | 1.27 | 1.27 | 53 | 1011.1 |
| 20260505111837 | 63 | 180 | 0.0 | 0.0 | 0.00 | 1.27 | 1.27 | 52 | 1011.1 |
| 20260505111436 | 64 | 135 | 0.0 | 0.0 | 0.00 | 1.27 | 1.27 | 53 | 1011.1 |
| 20260505111035 | 63 | 225 | 0.0 | 0.0 | 0.00 | 1.27 | 1.27 | 55 | 1010.9 |
| 20260505110634 | 62 | 135 | 0.0 | 0.0 | 0.00 | 1.27 | 1.27 | 55 | 1011.0 |
| 20260505110233 | 62 | 180 | 0.0 | 0.0 | 0.00 | 1.27 | 1.27 | 57 | 1011.0 |
| 20260505101419 | 57 | 135 | 0.0 | 0.0 | 0.00 | 1.27 | 1.27 | 68 | 1010.9 |
| 20260505101018 | 58 | 135 | 0.0 | 0.0 | 0.00 | 1.27 | 1.27 | 67 | 1010.9 |
| 20260505100617 | 58 | 90 | 0.0 | 0.0 | 0.00 | 1.27 | 1.27 | 67 | 1010.9 |
| 20260505100216 | 58 | 135 | 0.0 | 0.0 | 0.00 | 1.27 | 1.27 | 67 | 1010.9 |
| 20260505095815 | 58 | 135 | 0.0 | 0.0 | 0.00 | 1.27 | 1.27 | 68 | 1010.9 |
| 20260505095213 | 57 | 135 | 0.0 | 0.0 | 0.00 | 1.27 | 1.27 | 68 | 1010.8 |
| 20260505094811 | 57 | 90 | 0.0 | 0.0 | 0.00 | 1.27 | 1.27 | 68 | 1010.8 |
| 20260505094410 | 57 | 135 | 0.0 | 0.0 | 0.00 | 1.27 | 1.27 | 68 | 1010.8 |
| 20260505094009 | 58 | 135 | 0.0 | 0.0 | 0.00 | 1.27 | 1.27 | 68 | 1010.7 |
| 20260505093609 | 58 | 135 | 0.0 | 0.0 | 0.00 | 1.27 | 1.27 | 68 | 1010.7 |
| 20260505093208 | 58 | 135 | 0.0 | 0.0 | 0.00 | 1.27 | 1.27 | 69 | 1010.7 |
| 20260505091805 | 58 | 135 | 0.0 | 0.0 | 0.00 | 1.27 | 1.27 | 71 | 1010.6 |
| 20260505091403 | 58 | 135 | 0.0 | 0.0 | 0.00 | 1.27 | 1.27 | 71 | 1010.6 |
| 20260505091002 | 57 | 135 | 0.0 | 0.0 | 0.00 | 1.27 | 1.27 | 70 | 1010.6 |
| 20260505090601 | 57 | 135 | 0.0 | 0.0 | 0.00 | 1.27 | 1.27 | 70 | 1010.6 |
| 20260505090159 | 58 | 180 | 0.0 | 0.0 | 0.00 | 1.27 | 1.27 | 72 | 1010.7 |
| 20260505085157 | 59 | 180 | 0.0 | 0.0 | 0.00 | 1.27 | 1.27 | 73 | 1010.5 |
| 20260505084756 | 58 | 270 | 0.0 | 0.0 | 0.00 | 1.27 | 1.27 | 74 | 1010.4 |
| 20260505084354 | 58 | 180 | 0.0 | 0.0 | 0.00 | 1.27 | 1.27 | 74 | 1010.5 |
| 20260505083953 | 58 | 180 | 0.0 | 0.0 | 0.00 | 1.27 | 1.27 | 74 | 1010.5 |
| 20260505083752 | 58 | 180 | 0.0 | 0.0 | 0.00 | 1.27 | 1.27 | 75 | 1010.5 |
| 20260505083350 | 58 | 180 | 0.0 | 0.0 | 0.00 | 1.27 | 1.27 | 75 | 1010.5 |
| 20260505082949 | 58 | 180 | 0.0 | 0.0 | 0.00 | 1.27 | 1.27 | 76 | 1010.6 |
| 20260505082547 | 58 | 225 | 0.0 | 0.0 | 0.00 | 1.27 | 1.27 | 76 | 1010.5 |
| 20260505082146 | 58 | 225 | 0.0 | 0.0 | 0.00 | 1.27 | 1.27 | 76 | 1010.5 |
| 20260505081143 | 57 | 270 | 0.0 | 0.0 | 0.00 | 1.27 | 1.27 | 80 | 1010.3 |
| 20260505080742 | 56 | 270 | 0.0 | 0.0 | 0.00 | 1.27 | 1.27 | 82 | 1010.2 |
| 20260505075941 | 56 | 270 | 0.0 | 0.0 | 0.00 | 1.27 | 1.27 | 83 | 1010.4 |
| 20260505075339 | 55 | 270 | 0.0 | 0.0 | 0.00 | 1.27 | 1.27 | 85 | 1010.4 |
| 20260505074937 | 55 | 180 | 0.0 | 0.0 | 0.00 | 1.27 | 1.27 | 84 | 1010.4 |
| 20260505074536 | 55 | 180 | 0.0 | 0.0 | 0.01 | 1.27 | 1.27 | 84 | 1010.6 |
| 20260505074135 | 55 | 180 | 0.0 | 0.0 | 0.01 | 1.27 | 1.27 | 84 | 1010.6 |
| 20260505073734 | 55 | 180 | 0.0 | 0.0 | 0.01 | 1.27 | 1.27 | 84 | 1010.7 |
| 20260505073533 | 55 | 225 | 0.0 | 0.0 | 0.01 | 1.27 | 1.27 | 84 | 1010.7 |
| 20260505073131 | 54 | 225 | 0.0 | 0.0 | 0.02 | 1.27 | 1.27 | 84 | 1010.6 |
| 20260505072730 | 54 | 225 | 0.0 | 0.0 | 0.03 | 1.27 | 1.27 | 84 | 1010.6 |
| 20260505072329 | 54 | 225 | 0.0 | 0.0 | 0.04 | 1.27 | 1.27 | 84 | 1010.6 |
| 20260505071928 | 53 | 225 | 0.0 | 0.0 | 0.05 | 1.27 | 1.27 | 85 | 1010.6 |
| 20260505071527 | 53 | 225 | 0.0 | 0.0 | 0.07 | 1.27 | 1.27 | 85 | 1010.6 |
| 20260505070525 | 52 | 225 | 0.0 | 0.0 | 0.12 | 1.27 | 1.27 | 85 | 1010.5 |
| 20260505070124 | 52 | 90 | 0.0 | 0.0 | 0.16 | 1.27 | 1.27 | 85 | 1010.6 |
| 20260505065722 | 52 | 270 | 0.0 | 0.0 | 0.20 | 1.27 | 1.27 | 85 | 1010.5 |
| 20260505065321 | 52 | 270 | 0.0 | 0.0 | 0.24 | 1.27 | 1.27 | 85 | 1010.5 |
| 20260505064719 | 51 | 225 | 0.0 | 0.0 | 0.31 | 1.26 | 1.26 | 85 | 1010.4 |
| 20260505064318 | 51 | 315 | 0.0 | 0.0 | 0.34 | 1.26 | 1.26 | 85 | 1010.3 |
| 20260505063916 | 51 | 45 | 0.0 | 0.0 | 0.36 | 1.26 | 1.26 | 85 | 1010.3 |
| 20260505063516 | 51 | 45 | 0.0 | 0.0 | 0.38 | 1.25 | 1.26 | 85 | 1010.1 |
| 20260505063114 | 51 | 45 | 0.0 | 0.0 | 0.41 | 1.24 | 1.25 | 84 | 1010.2 |
| 20260505062714 | 51 | 270 | 0.0 | 0.0 | 0.43 | 1.22 | 1.24 | 84 | 1010.1 |
| 20260505062112 | 51 | 270 | 0.0 | 0.0 | 0.48 | 1.20 | 1.21 | 84 | 1009.9 |
| 20260505061711 | 50 | 90 | 0.0 | 0.0 | 0.47 | 1.18 | 1.20 | 84 | 1009.7 |
| 20260505061309 | 50 | 90 | 0.0 | 0.0 | 0.47 | 1.15 | 1.18 | 84 | 1009.6 |
| 20260505060908 | 50 | 315 | 0.0 | 0.0 | 0.49 | 1.14 | 1.15 | 84 | 1009.9 |
| 20260505055906 | 51 | 90 | 0.0 | 0.0 | 0.46 | 1.02 | 1.07 | 83 | 1010.4 |
| 20260505055506 | 51 | 293 | 0.0 | 0.0 | 0.46 | 0.99 | 1.02 | 83 | 1010.6 |
| 20260505055104 | 51 | 225 | 0.0 | 0.0 | 0.42 | 0.94 | 0.99 | 83 | 1010.7 |
| 20260505054703 | 51 | 225 | 0.0 | 1.0 | 0.43 | 0.92 | 0.94 | 83 | 1010.8 |
| 20260505054101 | 51 | 135 | 0.0 | 0.0 | 0.42 | 0.89 | 0.89 | 83 | 1010.2 |
| 20260505053700 | 51 | 90 | 0.0 | 0.0 | 0.40 | 0.82 | 0.86 | 83 | 1009.9 |
| 20260505053258 | 51 | 90 | 0.0 | 0.0 | 0.37 | 0.79 | 0.82 | 82 | 1009.9 |
| 20260505052857 | 52 | 90 | 0.0 | 1.0 | 0.35 | 0.75 | 0.79 | 82 | 1009.8 |
| 20260505052455 | 52 | 180 | 0.0 | 0.0 | 0.33 | 0.72 | 0.75 | 82 | 1009.6 |
| 20260505052054 | 52 | 135 | 0.0 | 0.0 | 0.33 | 0.70 | 0.72 | 81 | 1009.5 |
| 20260505050650 | 52 | 180 | 0.0 | 0.0 | 0.29 | 0.59 | 0.61 | 79 | 1009.7 |
| 20260505050249 | 52 | 225 | 0.0 | 0.0 | 0.33 | 0.56 | 0.59 | 79 | 1009.5 |
| 20260505041436 | 52 | 203 | 0.0 | 0.0 | 0.17 | 0.33 | 0.35 | 76 | 1009.8 |
| 20260505041035 | 52 | 45 | 0.0 | 0.0 | 0.14 | 0.29 | 0.33 | 75 | 1009.9 |
| 20260505040634 | 52 | 90 | 0.0 | 0.0 | 0.09 | 0.23 | 0.29 | 75 | 1010.0 |
| 20260505035631 | 52 | 225 | 0.0 | 0.0 | 0.08 | 0.22 | 0.22 | 74 | 1010.0 |
| 20260505035230 | 52 | 180 | 0.0 | 0.0 | 0.08 | 0.22 | 0.22 | 74 | 1009.8 |
| 20260505034828 | 52 | 90 | 0.0 | 0.0 | 0.07 | 0.21 | 0.22 | 74 | 1009.9 |
| 20260505034427 | 52 | 90 | 0.0 | 0.0 | 0.08 | 0.21 | 0.21 | 74 | 1010.0 |
| 20260505033825 | 52 | 45 | 0.0 | 0.0 | 0.07 | 0.18 | 0.18 | 74 | 1010.0 |
| 20260505033425 | 52 | 45 | 0.0 | 0.0 | 0.05 | 0.17 | 0.18 | 73 | 1010.3 |
| 20260505033023 | 52 | 45 | 0.0 | 0.0 | 0.05 | 0.16 | 0.17 | 73 | 1010.3 |
| 20260505032622 | 53 | 135 | 0.0 | 0.0 | 0.04 | 0.15 | 0.16 | 73 | 1010.4 |
| 20260505032221 | 53 | 180 | 0.0 | 0.0 | 0.05 | 0.15 | 0.15 | 73 | 1010.5 |
| 20260505032020 | 53 | 270 | 0.0 | 0.0 | 0.05 | 0.15 | 0.15 | 72 | 1010.5 |
| 20260505031619 | 53 | 270 | 0.0 | 0.0 | 0.07 | 0.15 | 0.15 | 72 | 1010.6 |
| 20260505031218 | 53 | 270 | 0.0 | 0.0 | 0.07 | 0.14 | 0.15 | 71 | 1010.6 |
| 20260505030817 | 53 | 270 | 0.0 | 0.0 | 0.07 | 0.14 | 0.14 | 70 | 1010.8 |
| 20260505030416 | 53 | 90 | 0.0 | 0.0 | 0.08 | 0.14 | 0.14 | 70 | 1010.8 |
| 20260505030015 | 53 | 90 | 0.0 | 0.0 | 0.08 | 0.14 | 0.14 | 69 | 1010.8 |
| 20260505025613 | 53 | 90 | 0.0 | 0.0 | 0.08 | 0.14 | 0.14 | 67 | 1010.8 |
| 20260505025212 | 53 | 45 | 0.0 | 0.0 | 0.08 | 0.14 | 0.14 | 67 | 1010.8 |
| 20260505024209 | 53 | 270 | 0.0 | 0.0 | 0.07 | 0.11 | 0.12 | 63 | 1011.1 |
| 20260505023809 | 53 | 270 | 0.0 | 0.0 | 0.07 | 0.11 | 0.11 | 62 | 1011.3 |
| 20260505023407 | 53 | 180 | 0.0 | 0.0 | 0.05 | 0.10 | 0.11 | 61 | 1011.2 |
| 20260505023006 | 53 | 225 | 0.0 | 0.0 | 0.07 | 0.10 | 0.10 | 60 | 1011.2 |
| 20260505022604 | 53 | 135 | 0.0 | 0.0 | 0.07 | 0.09 | 0.10 | 58 | 1011.2 |
| 20260505022002 | 53 | 135 | 0.0 | 0.0 | 0.05 | 0.09 | 0.09 | 57 | 1011.3 |
| 20260505021602 | 53 | 135 | 0.0 | 0.0 | 0.05 | 0.07 | 0.08 | 57 | 1011.4 |
| 20260505021200 | 53 | 90 | 0.0 | 0.0 | 0.05 | 0.07 | 0.07 | 56 | 1011.4 |
| 20260505020759 | 54 | 45 | 0.0 | 0.0 | 0.05 | 0.05 | 0.07 | 55 | 1011.4 |
| 20260505020358 | 54 | 23 | 0.0 | 0.0 | 0.05 | 0.05 | 0.05 | 54 | 1011.5 |
| 20260505020157 | 54 | 270 | 0.0 | 0.0 | 0.05 | 0.05 | 0.05 | 54 | 1011.7 |
| 20260505015755 | 54 | 270 | 0.0 | 0.0 | 0.05 | 0.05 | 0.05 | 53 | 1011.6 |
| 20260505015354 | 54 | 90 | 0.0 | 0.0 | 0.04 | 0.04 | 0.05 | 52 | 1011.7 |
| 20260505014953 | 54 | 270 | 0.0 | 0.0 | 0.04 | 0.04 | 0.04 | 52 | 1011.7 |
| 20260505014552 | 54 | 270 | 0.0 | 0.0 | 0.04 | 0.04 | 0.04 | 51 | 1011.8 |
| 20260505014151 | 54 | 225 | 0.0 | 0.0 | 0.04 | 0.04 | 0.04 | 51 | 1011.8 |
| 20260505013549 | 54 | 45 | 0.0 | 0.0 | 0.03 | 0.03 | 0.04 | 49 | 1012.0 |
| 20260505013148 | 55 | 180 | 0.0 | 0.0 | 0.02 | 0.02 | 0.03 | 48 | 1012.0 |
| 20260505012746 | 55 | 0 | 0.0 | 0.0 | 0.02 | 0.02 | 0.02 | 47 | 1012.1 |
| 20260505012345 | 55 | 270 | 0.0 | 0.0 | 0.02 | 0.02 | 0.02 | 46 | 1012.1 |
| 20260505011944 | 55 | 90 | 0.0 | 0.0 | 0.01 | 0.01 | 0.02 | 46 | 1012.2 |
| 20260505011342 | 56 | 135 | 0.0 | 0.0 | 0.00 | 0.01 | 0.01 | 44 | 1012.3 |
| 20260505010941 | 56 | 315 | 0.0 | 0.0 | 0.00 | 0.00 | 0.00 | 42 | 1012.3 |
| 20260505010539 | 56 | 180 | 0.0 | 0.0 | 0.00 | 0.00 | 0.00 | 42 | 1012.5 |
| 20260505010138 | 57 | 45 | 0.0 | 0.0 | 0.00 | 0.00 | 0.00 | 41 | 1012.4 |
| 20260505005737 | 57 | 270 | 0.0 | 0.0 | 0.00 | 0.00 | 0.00 | 39 | 1012.6 |
| 20260505004734 | 57 | 135 | 0.0 | 0.0 | 0.00 | 0.00 | 0.00 | 37 | 1012.6 |
| 20260505004333 | 57 | 45 | 0.0 | 0.0 | 0.00 | 0.00 | 0.00 | 36 | 1012.7 |
| 20260505003932 | 58 | 315 | 0.0 | 0.0 | 0.00 | 0.00 | 0.00 | 36 | 1012.8 |
| 20260505003331 | 58 | 90 | 0.0 | 0.0 | 0.00 | 0.00 | 0.00 | 35 | 1012.9 |
| 20260505002929 | 58 | 270 | 0.0 | 0.0 | 0.00 | 0.00 | 0.00 | 35 | 1012.9 |